Skip Page Navigation
NASA JPL Caltech
NASA Logo - Jet Propulsion Laboratory + View the NASA Portal
+ Near-Earth Object (NEO) Program
Search JPL
JPL Home Earth Solar System Stars & Galaxies Technology
JPL Solar System Dynamics
BODIES ORBITS EPHEMERIDES TOOLS PHYSICAL DATA DISCOVERY FAQ SITE MAP
JPL Small-Body Database Browser
Search: [ help ]  
23779 Cambier (1998 QL10)
Classification: Main-belt Asteroid          SPK-ID: 2023779
Ephemeris | Orbit Diagram | Orbital Elements | Physical Parameters | Discovery Circumstances | Close-Approach Data ]

[ show orbit diagram ]
Orbital Elements at Epoch 2456800.5 (2014-May-23.0) TDB
Reference: JPL 8 (heliocentric ecliptic J2000)
 Element Value Uncertainty (1-sigma)   Units 
e .1883517268418387 7.5708e-08  
a 2.597379382427959 2.9034e-08 AU
q 2.108158490484264 2.1074e-07 AU
i 3.793110857985202 7.474e-06 deg
node 163.0493947936261 0.00011712 deg
peri 107.1936018938593 0.00012034 deg
M 307.2013698045616 2.9753e-05 deg
tp 2457024.744430168482
(2015-Jan-02.24443017)
0.00012883 JED
period 1528.978963314623
4.19
2.5637e-05
7.019e-08
d
yr
n .2354512446787155 3.9478e-09 deg/d
Q 3.086600274371654 3.4502e-08 AU
  Orbit Determination Parameters
   # obs. used (total)      617  
   data-arc span      7232 days (19.80 yr)  
   first obs. used      1994-09-05  
   last obs. used      2014-06-24  
   planetary ephem.      DE431  
   SB-pert. ephem.      SB431-BIG16  
   condition code      0  
   fit RMS      .55425  
   data source      ORB  
   producer      Otto Matic  
   solution date      2014-Jul-14 12:50:46  

Additional Information
 Earth MOID = 1.09552 AU 
 T_jup = 3.388 
[ show covariance matrix ]

Ephemeris | Orbit Diagram | Orbital Elements | Physical Parameters | Discovery Circumstances | Close-Approach Data ]

Physical Parameter Table
Parameter Symbol Value Units Sigma Reference Notes
absolute magnitude H 14.7 mag n/a MPO247561  

23779 Cambier           Discovered 1998 Aug. 17 by the Lincoln Laboratory Near-Earth Asteroid Research Team at Socorro.
Colleen Siobahn Cambier (b. 1993) is a finalist in the 2007 Discovery Channel Young Scientist Challenge (DCYSC), a middle school science competition, for her biochem, medicine, health, and microbiology project. She attends the St. Paul's School, Clearwater, Florida.
NOTE: some special characters may not display properly (any characters within {} are an attempt to place the proper accent above a character)
Reference: 20071026/MPCPages.arcLast Updated: 2007-10-28

[ show close-approach data ]
Alternate Designations
 1998 QL10 = 1994 RJ22 
Ephemeris | Orbit Diagram | Orbital Elements | Physical Parameters | Discovery Circumstances | Close-Approach Data ]
ABOUT SSD CREDITS/AWARDS PRIVACY/COPYRIGHT GLOSSARY LINKS
FirstGov 2014-Jul-26 11:11 UT
(server date/time)  
NASA Home Page
Site Manager:   Donald K. Yeomans
Webmaster  Alan B. Chamberlin